User: anonymous   Login
Location: Baix
(44.7118°N, 4.7648°E)
Time: 22:28:04
(UTC+00:00)
Language:

A-11 Canister half - Orbit

View from above orbital plane
View from above orbital plane
View from above satellite
View from above satellite

Ground track
Ground track

The orbit data is extracted from the following two-line orbital elements,

1 00053U 60009E   20339.61228441 -.00000053  00000-0  30502-3 0  9990
2 00053  47.2767  94.2446 0099459 223.0075 136.2907 12.17249740689296
Epoch (UTC): 04 December 2020 14:41:41
Eccentricity: 0.0099459
inclination: 47.2767°
perigee height: 1525 km
apogee height: 1684 km
right ascension of ascending node: 94.2446°
argument of perigee: 223.0075°
revolutions per day: 12.17249740
mean anomaly at epoch: 136.2907°
orbit number at epoch: 68929

The dashed part of the orbit path shows where the satellite is in the earth's shadow,  

DLR